[[{"header":{"parameterUnit":"m.s-1","parameterCategory":1,"la1":30.2991,"la2":30.254,"lo1":-89.0895,"lo2":-89.0444,"dy":0.0017,"dx":0.0017,"nx":28,"ny":28,"refTime":"2025-08-31T09:00:00:Z","depth":0,"parameterNumber":2,"parameterNumberName":"U-component_of_WINDS"},"data":[0,0,0,0,0,0,0,0,0,0,0,0,0,0,0,0,0,0,0,0,0,0,0,0,0,0,0,0,0,0,0,0,0,0,0,0,0,0,0,0,0,0,0,0,0,0,0,0,0,0,0,0,0,0,0,0,0,0,-3.0777,-3.0778,0,-3.0845,-3.0846,-3.0847,-3.0794,-3.0791,-3.0789,-3.0787,-3.0856,-3.086,-3.0864,0,0,0,0,0,0,0,0,0,0,0,0,0,-3.0598,-3.0602,-3.0777,-3.0778,-3.0779,-3.0845,-3.0846,-3.0847,-3.0794,-3.0791,-3.0788,-3.0786,-3.0855,-3.086,-3.0864,0,0,0,0,0,0,0,0,0,0,0,0,0,-3.0672,-3.0603,-3.0777,-3.076,-3.0759,-3.0845,-3.0846,-3.0847,-3.0795,-3.0791,-3.0788,-3.0784,-3.0853,-3.0859,-3.0865,-3.0971,0,0,-3.0883,-3.0886,0,0,0,0,0,0,0,0,-3.0668,-3.0679,-3.0762,-3.0761,-3.0761,-3.0807,-3.0809,-3.0889,-3.0795,-3.0781,-3.0787,-3.0783,-3.0843,-3.0849,-3.087,-3.0974,-3.0977,-3.0884,-3.0887,-3.089,-3.0892,0,0,0,0,0,0,0,-3.0663,-3.0676,-3.0804,-3.0763,-3.0762,-3.0749,-3.0755,-3.0824,-3.083,-3.0782,-3.0778,-3.0787,-3.0842,-3.0864,-3.0871,-3.0978,-3.0884,-3.0889,-3.0893,-3.0895,-3.1171,-3.1175,0,0,0,0,0,0,-3.066,-3.0672,-3.0802,-3.0806,-3.0705,-3.0755,-3.0762,-3.0796,-3.0829,-3.0831,-3.079,-3.0785,-3.0856,-3.0864,-3.0873,-3.0998,-3.089,-3.0896,-3.0899,-3.1167,-3.1172,-3.1176,0,0,0,0,0,0,-3.0656,-3.0672,-3.0799,-3.0738,-3.0753,-3.0761,-3.08,-3.0799,-3.0821,-3.0836,-3.0836,-3.0812,-3.0853,-3.0865,-3.0947,-3.1,-3.0898,-3.0904,-3.1163,-3.1169,-3.1174,-3.1249,0,0,0,0,0,0,-3.0651,-3.0671,-3.0712,-3.0739,-3.0757,-3.0872,-3.0803,-3.0803,-3.0832,-3.0825,-3.0856,-3.0858,-3.0851,-3.0938,-3.0953,-3.1006,-3.0908,-3.1158,-3.1165,-3.1172,-3.1242,-3.1256,-3.1269,0,0,0,0,0,-3.0645,-3.073,-3.0714,-3.073,-3.0808,-3.0875,-3.0885,-3.0876,-3.0836,-3.0877,-3.0886,-3.0857,-3.0992,-3.0947,-3.0963,-3.1019,-3.1155,-3.1163,-3.1172,-3.1236,-3.1254,-3.1269,0,0,0,0,0,0,-3.0708,-3.0733,-3.0716,-3.0812,-3.0842,-3.0866,-3.0917,-3.0895,-3.0937,-3.0929,-3.0916,-3.0923,-3.1009,-3.1022,-3.0972,-3.1122,-3.1067,-3.1079,-3.111,-3.1127,-3.1141,-3.1135,-3.0913,0,0,0,0,0,-3.0734,-3.0787,-3.0806,-3.0889,-3.0905,-3.0908,-3.0938,-3.0928,-3.0958,-3.097,-3.0985,-3.1015,-3.1064,-3.1097,-3.1143,-3.1244,-3.1249,-3.129,-3.1304,-3.1315,-3.1325,-3.1378,-3.1396,-3.1204,-3.1204,-3.1203,0,0,-3.0786,-3.0806,-3.0841,-3.0902,-3.0924,-3.0978,-3.0919,-3.098,-3.102,-3.0979,-3.1057,-3.107,-3.1102,-3.1194,-3.1235,-3.1207,-3.138,-3.1326,-3.1335,-3.1339,-3.1389,-3.1407,-3.1423,-3.1209,-3.1208,-3.1207,0,0,-3.0909,-3.0931,-3.1001,-3.1025,-3.1058,-3.106,-3.1077,-3.1105,-3.1111,-3.1189,-3.116,-3.1207,-3.1292,-3.1316,-3.134,-3.1472,-3.1446,-3.1487,-3.1558,-3.161,-3.1625,-3.1638,-3.1684,-3.1701,-3.1498,-3.1498,-3.1498,0,-3.097,-3.1051,-3.1041,-3.1103,-3.113,-3.1097,-3.1168,-3.1191,-3.1238,-3.1258,-3.1226,-3.1332,-3.1352,-3.1448,-3.148,-3.1501,-3.1519,-3.1483,-3.1624,-3.1637,-3.1649,-3.1693,-3.171,-3.1502,-3.1502,-3.1501,-3.1501,0,-3.1123,-3.118,-3.1233,-3.1279,-3.1313,-3.138,-3.1379,-3.1414,-3.1402,-3.1407,-3.1486,-3.1509,-3.1558,-3.1581,-3.157,-3.1675,-3.1657,-3.1626,-3.1569,-3.1673,-3.1713,-3.173,-3.1509,-3.1507,-3.1506,-3.1505,0,0,-3.1287,-3.1327,-3.1346,-3.1366,-3.1401,-3.1444,-3.151,-3.1558,-3.1588,-3.1622,-3.1675,-3.1748,-3.1718,-3.1745,-3.1736,-3.1782,-3.1884,-3.1744,-3.1745,-3.1768,-3.2,-3.2022,-3.2042,-3.1867,-3.1871,-3.1873,-3.1997,0,-3.1411,-3.1523,-3.1516,-3.1622,-3.1673,-3.1642,-3.1698,-3.1726,-3.1732,-3.1777,-3.1784,-3.1835,-3.1793,-3.1809,-3.1853,-3.1862,-3.193,-3.1853,-3.1916,-3.1918,-3.1907,-3.2063,-3.2088,-3.2203,-3.2013,-3.2015,-3.2017,0,-3.1569,-3.1608,-3.172,-3.1746,-3.1767,-3.1818,-3.1861,-3.1904,-3.1934,-3.1936,-3.1966,-3.1949,-3.2014,-3.1958,-3.2046,-3.1994,-3.202,-3.2028,-3.2032,-3.2036,-3.1973,-3.207,-3.224,-3.2257,-3.2042,-3.204,-3.2039,0,-3.1676,-3.1756,-3.1833,-3.1851,-3.1884,-3.192,-3.1935,-3.1962,-3.1991,-3.2029,-3.2048,-3.2093,-3.2118,-3.2153,-3.2149,-3.2108,-3.2239,-3.2182,-3.2241,-3.2241,-3.2268,-3.2266,-3.2443,-3.2288,-3.2287,-3.2287,-3.2287,0,-3.1813,-3.1882,-3.1881,-3.1928,-3.2004,-3.1994,-3.207,-3.2081,-3.2105,-3.2153,-3.2129,-3.2175,-3.2167,-3.2213,-3.2211,-3.2284,-3.2295,-3.2298,-3.2296,-3.2299,-3.2298,-3.2314,-3.2305,-3.2292,-3.2291,-3.229,-3.2289,0,-3.1945,-3.1947,-3.2028,-3.2052,-3.206,-3.2114,-3.2135,-3.2179,-3.2184,-3.2245,-3.2259,-3.2266,-3.2319,-3.2318,-3.2378,-3.2377,-3.2466,-3.2456,-3.2455,-3.2453,-3.2511,-3.2505,-3.2702,-3.2727,-3.2557,-3.2559,-3.256,0,-3.2032,-3.2084,-3.2114,-3.2144,-3.2161,-3.2211,-3.2241,-3.2234,-3.2265,-3.2303,-3.2343,-3.2393,-3.2433,-3.2518,-3.2528,-3.2574,-3.2564,-3.263,-3.257,-3.2571,-3.2563,-3.2559,-3.2564,-3.2641,-3.2643,-3.2644,-3.2646,0,-3.2185,-3.2183,-3.2227,-3.2271,-3.2307,-3.2342,-3.2373,-3.24,-3.2396,-3.2433,-3.2486,-3.2517,-3.2578,-3.2628,-3.2672,-3.2687,-3.2666,-3.2664,-3.268,-3.2683,-3.268,-3.2681,-3.2485,-3.266,-3.2658,-3.2657,-3.2656,-3.2656,-3.2296,-3.234,-3.2368,-3.2417,-3.244,-3.247,-3.2512,-3.2522,-3.2567,-3.2615,-3.2609,-3.2668,-3.2696,-3.2753,-3.2772,-3.2818,-3.2795,-3.2818,-3.2824,-3.2829,-3.2835,-3.2674,-3.2826,-3.2826,-3.2825,-3.2825,-3.2825,0,-3.2447,-3.2463,-3.2509,-3.2553,-3.2592,-3.2569,-3.2603,-3.2636,-3.2689,-3.2717,-3.2756,-3.2817,-3.2865,-3.288,-3.2926,-3.296,-3.2951,-3.2972,-3.2969,-3.2973,-3.2853,-3.2834,-3.2978,-3.2978,-3.2978,-3.2978,-3.2978,-3.2978,-3.253,-3.2603,-3.2605,-3.2689,-3.2705,-3.2762,-3.2783,-3.2811,-3.2833,-3.2902,-3.2942,-3.2951,-3.2973,-3.3021,-3.3064,-3.3067,-3.3085,-3.3109,-3.3108,-3.2997,-3.2981,-3.2966,-3.2948,-3.3114,-3.3114,-3.3223,-3.3224,-3.3225]},{"header":{"parameterUnit":"m.s-1","parameterCategory":1,"la1":30.2991,"la2":30.254,"lo1":-89.0895,"lo2":-89.0444,"dy":0.0017,"dx":0.0017,"nx":28,"ny":28,"refTime":"2025-08-31T09:00:00:Z","depth":0,"parameterNumber":3,"parameterNumberName":"V-component_of_WINDS"},"data":[0,0,0,0,0,0,0,0,0,0,0,0,0,0,0,0,0,0,0,0,0,0,0,0,0,0,0,0,0,0,0,0,0,0,0,0,0,0,0,0,0,0,0,0,0,0,0,0,0,0,0,0,0,0,0,0,0,0,0.7946,0.7946,0,0.7939,0.7939,0.7939,0.7938,0.7938,0.7938,0.7938,0.7928,0.7928,0.7928,0,0,0,0,0,0,0,0,0,0,0,0,0,0.7955,0.7955,0.7946,0.7946,0.7946,0.7939,0.7939,0.7939,0.7938,0.7938,0.7938,0.7938,0.7928,0.7928,0.7928,0,0,0,0,0,0,0,0,0,0,0,0,0,0.795,0.7955,0.7946,0.7945,0.7944,0.7939,0.7939,0.7939,0.7938,0.7938,0.7938,0.7938,0.7929,0.7928,0.7928,0.7923,0,0,0.7926,0.7926,0,0,0,0,0,0,0,0,0.795,0.795,0.7945,0.7945,0.7944,0.794,0.7939,0.7934,0.7938,0.794,0.7938,0.7938,0.7932,0.7931,0.793,0.7922,0.7922,0.7926,0.7926,0.7926,0.7925,0,0,0,0,0,0,0,0.7951,0.795,0.7943,0.7945,0.7945,0.7944,0.7943,0.7938,0.7935,0.794,0.794,0.794,0.7932,0.793,0.7929,0.7922,0.7926,0.7926,0.7925,0.7925,0.7911,0.7911,0,0,0,0,0,0,0.7952,0.795,0.7943,0.7943,0.7948,0.7943,0.7943,0.7941,0.7936,0.7935,0.7939,0.794,0.7931,0.793,0.7929,0.7923,0.7926,0.7925,0.7925,0.7911,0.7911,0.7911,0,0,0,0,0,0,0.7952,0.7951,0.7944,0.7947,0.7946,0.7943,0.7941,0.7941,0.7939,0.7935,0.7934,0.7938,0.7931,0.793,0.7925,0.7923,0.7925,0.7924,0.7911,0.7911,0.7911,0.7911,0,0,0,0,0,0,0.7952,0.7951,0.795,0.7947,0.7946,0.794,0.7941,0.7941,0.7939,0.7939,0.7934,0.7933,0.7931,0.7925,0.7924,0.7922,0.7924,0.7911,0.7911,0.7911,0.7912,0.7911,0.7911,0,0,0,0,0,0.7953,0.7949,0.795,0.7949,0.7944,0.794,0.7939,0.7938,0.7939,0.7937,0.7934,0.7933,0.7924,0.7925,0.7924,0.7921,0.7911,0.7911,0.7911,0.7912,0.7911,0.7911,0,0,0,0,0,0,0.795,0.7949,0.7949,0.7945,0.7943,0.794,0.7937,0.7937,0.7934,0.7934,0.7931,0.793,0.7926,0.7923,0.7925,0.7917,0.7917,0.7917,0.7918,0.7918,0.7918,0.7918,0.7924,0,0,0,0,0,0.795,0.7948,0.7946,0.7943,0.7942,0.794,0.7938,0.7938,0.7935,0.7933,0.793,0.7927,0.7923,0.7921,0.7917,0.7912,0.791,0.7909,0.7909,0.7909,0.7908,0.7906,0.7906,0.791,0.791,0.791,0,0,0.7948,0.7947,0.7945,0.7942,0.794,0.7938,0.7939,0.7936,0.7934,0.7932,0.7928,0.7926,0.7922,0.7917,0.7915,0.7915,0.7907,0.7909,0.7909,0.7908,0.7906,0.7905,0.7905,0.791,0.791,0.791,0,0,0.7943,0.7942,0.7939,0.7938,0.7936,0.7935,0.7935,0.7932,0.7931,0.7927,0.7926,0.7923,0.7917,0.7914,0.7912,0.7908,0.7907,0.7907,0.7906,0.7903,0.7903,0.7903,0.7901,0.7901,0.7907,0.7907,0.7907,0,0.794,0.7937,0.7938,0.7935,0.7934,0.7934,0.7931,0.793,0.7926,0.7925,0.7926,0.7918,0.7916,0.791,0.791,0.7908,0.7907,0.7907,0.7903,0.7903,0.7903,0.7901,0.7901,0.7907,0.7907,0.7907,0.7907,0,0.7934,0.7932,0.793,0.7929,0.7927,0.7924,0.7924,0.7922,0.7922,0.7921,0.7917,0.7914,0.791,0.7909,0.7908,0.7904,0.7904,0.7904,0.7904,0.7902,0.7901,0.79,0.7907,0.7907,0.7907,0.7907,0,0,0.7926,0.7926,0.7926,0.7925,0.7924,0.7922,0.7919,0.7917,0.7916,0.7913,0.7911,0.7906,0.7907,0.7904,0.7903,0.7901,0.7899,0.7902,0.7902,0.7901,0.7894,0.7894,0.7893,0.7899,0.7898,0.7898,0.7895,0,0.7921,0.7918,0.7919,0.7915,0.7913,0.7914,0.7912,0.7911,0.791,0.7908,0.7907,0.7904,0.7905,0.7903,0.7901,0.79,0.7897,0.79,0.7895,0.7895,0.7896,0.7893,0.7892,0.7888,0.7894,0.7894,0.7894,0,0.7914,0.7914,0.791,0.791,0.7909,0.7907,0.7906,0.7904,0.7903,0.7902,0.7901,0.7901,0.7898,0.7899,0.7895,0.7897,0.7895,0.7894,0.7894,0.7893,0.7894,0.7891,0.7887,0.7887,0.7893,0.7893,0.7893,0,0.7909,0.7907,0.7905,0.7904,0.7904,0.7903,0.7903,0.7902,0.7901,0.7899,0.7898,0.7896,0.7894,0.7893,0.7892,0.7893,0.7887,0.7889,0.7887,0.7887,0.7885,0.7885,0.788,0.7884,0.7884,0.7884,0.7884,0,0.7902,0.79,0.7902,0.7901,0.7899,0.79,0.7897,0.7897,0.7896,0.7895,0.7895,0.7894,0.7893,0.7891,0.789,0.7887,0.7886,0.7885,0.7885,0.7885,0.7885,0.7883,0.7883,0.7884,0.7884,0.7884,0.7884,0,0.7895,0.7897,0.7895,0.7896,0.7896,0.7894,0.7895,0.7893,0.7893,0.7891,0.7891,0.789,0.7888,0.7888,0.7884,0.7884,0.788,0.788,0.7881,0.7881,0.7879,0.7879,0.7872,0.7872,0.7877,0.7877,0.7877,0,0.789,0.7889,0.7891,0.789,0.789,0.7889,0.7889,0.789,0.789,0.7889,0.7888,0.7886,0.7884,0.7881,0.788,0.7878,0.7877,0.7876,0.7877,0.7877,0.7877,0.7877,0.7877,0.7875,0.7875,0.7875,0.7875,0,0.7882,0.7884,0.7883,0.7884,0.7883,0.7883,0.7883,0.7883,0.7884,0.7883,0.7882,0.7881,0.7879,0.7877,0.7876,0.7874,0.7875,0.7875,0.7874,0.7873,0.7874,0.7874,0.788,0.7874,0.7874,0.7874,0.7874,0.7874,0.7876,0.7875,0.7876,0.7876,0.7877,0.7877,0.7877,0.7878,0.7877,0.7876,0.7877,0.7875,0.7875,0.7873,0.7872,0.787,0.7871,0.787,0.787,0.7869,0.7869,0.7875,0.787,0.787,0.787,0.787,0.787,0,0.7867,0.7869,0.7869,0.787,0.787,0.7872,0.7873,0.7872,0.7871,0.7872,0.7871,0.787,0.7869,0.7868,0.7867,0.7866,0.7866,0.7865,0.7865,0.7865,0.7869,0.7869,0.7865,0.7865,0.7865,0.7865,0.7865,0.7865,0.7863,0.7862,0.7864,0.7863,0.7864,0.7864,0.7864,0.7865,0.7865,0.7864,0.7864,0.7864,0.7864,0.7863,0.7862,0.7862,0.7861,0.7861,0.7861,0.7864,0.7865,0.7865,0.7866,0.7861,0.7861,0.7857,0.7857,0.7857]}]]